This is the latest recevied weather packets stored in our database for station/object NN5DX-12. If no packets are shown the sender has not sent any weather packets the latest 10 day(s).
| Time | Temp. | Humidity | Pressure | Rain* | Wind** | Luminosity | Snow |
|---|---|---|---|---|---|---|---|
| 1777915516 | 16.11° C | 28% | 1014.9 hPa | 0 mm | - | - | - |
| 1777915216 | 16.11° C | 26% | 1014.7 hPa | 0 mm | - | - | - |
| 1777914916 | 16.67° C | 28% | 1015.5 hPa | 0 mm | - | - | - |
| 1777914616 | 16.67° C | 29% | 1015.6 hPa | 0 mm | - | - | - |
| 1777914316 | 16.11° C | 28% | 1015.1 hPa | 0 mm | - | - | - |
| 1777914016 | 15.56° C | 31% | 1015.3 hPa | 0 mm | - | - | - |
| 1777913716 | 15.56° C | 28% | 1015.2 hPa | 0 mm | - | - | - |
| 1777913416 | 15.56° C | 28% | 1015.3 hPa | 0 mm | - | - | - |
| 1777913116 | 15° C | 31% | 1014.5 hPa | 0 mm | - | - | - |
| 1777912816 | 15° C | 29% | 1014.8 hPa | 0 mm | - | - | - |
| 1777912516 | 15° C | 32% | 1014.8 hPa | 0 mm | - | - | - |
| 1777912216 | 14.44° C | 31% | 1015.1 hPa | 0 mm | - | - | - |
| 1777911916 | 15° C | 31% | 1015.1 hPa | 0 mm | - | - | - |
| 1777911616 | 15° C | 30% | 1015.1 hPa | 0 mm | - | - | - |
| 1777911316 | 15° C | 31% | 1015.3 hPa | 0 mm | - | - | - |
| 1777911016 | 14.44° C | 31% | 1015.3 hPa | 0 mm | - | - | - |
| 1777910716 | 14.44° C | 31% | 1015.5 hPa | 0 mm | - | - | - |
| 1777910416 | 14.44° C | 33% | 1015.2 hPa | 0 mm | - | - | - |
| 1777910116 | 13.89° C | 33% | 1015.8 hPa | 0 mm | - | - | - |
| 1777909816 | 13.33° C | 34% | 1015.9 hPa | 0 mm | - | - | - |
| 1777909516 | 12.78° C | 36% | 1015.2 hPa | 0 mm | - | - | - |
| 1777909216 | 12.78° C | 35% | 1015.3 hPa | 0 mm | - | - | - |
| 1777908916 | 12.22° C | 35% | 1015.3 hPa | 0 mm | - | - | - |
| 1777908616 | 11.67° C | 36% | 1014.8 hPa | 0 mm | - | - | - |
| 1777908316 | 11.67° C | 37% | 1015.5 hPa | 0 mm | - | - | - |
* Rain latest hour (hover to see other rain measurements)
** Current wind speed in m/s (hover to see current wind gust speed)